Вернуться в каталог

STARLINK-37168

АктивенСвязьSSO
NORAD 68766·PAYLOAD·🇺🇸 United States

Запущен Apr 19, 2026 с Vandenberg Space Force Base

Loading…

Ближайшие Пролёты (ближайшие 24 часа)

TLE

СвежийSource: CelesTrak SupGP

Эпоха: Sep 15, 2026, 04:10 UTC

1 68766C 26086A   26258.17409722 -.00039580  00000+0 -12293-2 0  2583
2 68766  97.2843 293.7582 0001290  88.5062 291.9507 15.33442945    19

Отслеживайте STARLINK-37168 в реальном времени с AllMySat

Download on the App Store